This is the latest recevied weather packets stored in our database for station/object W3JBS-2. If no packets are shown the sender has not sent any weather packets the latest 10 day(s).
| Time | Temp. | Humidity | Pressure | Rain* | Wind** | Luminosity | Snow |
|---|---|---|---|---|---|---|---|
| 1787492183 | 21.67° C | 87% | 1019.3 hPa | 0 mm | - | 1547 W/m² | - |
| 1787491282 | 21.11° C | 89% | 1026.1 hPa | 0 mm | - | 1621 W/m² | - |
| 1787490382 | 20.56° C | 89% | 1019.2 hPa | 0 mm | - | 1652 W/m² | - |
| 1787489483 | 20° C | 90% | 1013 hPa | 0 mm | - | 1684 W/m² | - |
| 1787488582 | 20° C | 90% | 1023.8 hPa | 0 mm | - | 1728 W/m² | - |
| 1787487682 | 19.44° C | 90% | 1024.1 hPa | 0 mm | - | 1737 W/m² | - |
| 1787486783 | 18.89° C | 90% | 1023.8 hPa | 0 mm | - | 1742 W/m² | - |
| 1787485882 | 18.89° C | 89% | 1028.3 hPa | 0 mm | - | 1746 W/m² | - |
| 1787484983 | 18.33° C | 89% | 1026.6 hPa | 0 mm | - | 1749 W/m² | - |
| 1787484082 | 17.78° C | 89% | 1023.3 hPa | 0 mm | - | 1753 W/m² | - |
| 1787483182 | 17.78° C | 89% | 1024.1 hPa | 0 mm | - | 1754 W/m² | - |
| 1787482283 | 17.78° C | 89% | 1028 hPa | 0 mm | - | 1756 W/m² | - |
| 1787481382 | 17.78° C | 89% | 1024.5 hPa | 0 mm | - | 1756 W/m² | - |
| 1787480483 | 17.78° C | 89% | 1025 hPa | 0 mm | - | 1758 W/m² | - |
| 1787479582 | 17.78° C | 89% | 1020.2 hPa | 0 mm | - | 1760 W/m² | - |
| 1787478682 | 17.78° C | 89% | 1026.2 hPa | 0 mm | - | 1760 W/m² | - |
| 1787476882 | 17.78° C | 88% | 1021.3 hPa | 0 mm | - | 1760 W/m² | - |
| 1787475982 | 17.78° C | 88% | 1021.3 hPa | 0 mm | - | 1760 W/m² | - |
| 1787475083 | 18.33° C | 88% | 1016.9 hPa | 0 mm | - | 1760 W/m² | - |
| 1787474182 | 18.33° C | 88% | 1023.7 hPa | 0 mm | - | 1760 W/m² | - |
| 1787473282 | 18.33° C | 88% | 1024.9 hPa | 0.51 mm | - | 1760 W/m² | - |
| 1787472382 | 18.33° C | 87% | 1019 hPa | 0.76 mm | - | 1761 W/m² | - |
| 1787471482 | 18.33° C | 87% | 1028.8 hPa | 4.32 mm | - | 1761 W/m² | - |
| 1787470583 | 18.33° C | 87% | 1025.9 hPa | 16.76 mm | - | 1761 W/m² | - |
| 1787469682 | 18.89° C | 86% | 1026.6 hPa | 16.26 mm | - | 1761 W/m² | - |
* Rain latest hour (hover to see other rain measurements)
** Current wind speed in m/s (hover to see current wind gust speed)